This demonstration page uses our WeatherBlox Daily Observations layout. Learn more.

38.88101, -77.10428

Hourly Observations for July 6, 2019

Temp ( °F °C ) Dew Point ( °F °C ) Humidity (%) Winds ( mph kmh ) Pressure ( in mb ) Visibility ( mi km ) Precip ( " mm )
12:52 am 00:52 Mostly Cloudy 82 27.8 75 23.9 79 79 S 6 9 30.03 1017 10 16.09344 0 0
1:52 am 01:52 Mostly Cloudy 81 27.2 76 24.4 85 85 S 7 11 30 1016 10 16.09344 0 0
2:52 am 02:52 Mostly Cloudy 80 26.7 75 23.9 85 85 SSW 5 7 29.97 1015 10 16.09344 0 0
3:52 am 03:52 Mostly Cloudy 79 26.1 76 24.4 90 90 SSW 6 9 29.97 1015 10 16.09344 0 0
4:52 am 04:52 Mostly Cloudy 79 26.1 75 23.9 88 88 S 6 9 29.97 1015 7 11.265408 0 0
5:52 am 05:52 Mostly Sunny 78 25.6 74 23.3 87 87 S 6 9 29.97 1015 7 11.265408 0 0
5:59 am 05:59 Mostly Sunny 78 25.6 74 23.3 87 87 S 7 11 30 1016 10 16.09344 0 0
6:16 am 06:16 Mostly Cloudy 78 25.6 75 23.9 90 90 S 6 9 30 1016 10 16.09344 0 0
6:26 am 06:26 Partly Cloudy 78 25.6 75 23.9 90 90 SSW 6 9 30 1016 10 16.09344 0 0
6:42 am 06:42 Mostly Cloudy 78 25.6 75 23.9 90 90 S 6 9 30 1016 10 16.09344 0 0
6:52 am 06:52 Mostly Cloudy 78 25.6 75 23.9 90 90 S 6 9 29.97 1015 10 16.09344 0 0
7:08 am 07:08 Cloudy 78 25.6 75 23.9 90 90 SSW 6 9 30 1016 10 16.09344 0 0
7:31 am 07:31 Mostly Cloudy 79 26.1 75 23.9 88 88 SW 6 9 30 1016 10 16.09344 0 0
7:52 am 07:52 Mostly Cloudy 79 26.1 74 23.3 85 85 SSW 9 15 30 1016 10 16.09344 0 0
8:03 am 08:03 Partly Cloudy 80 26.7 74 23.3 82 82 SSW 9 15 30 1016 10 16.09344 0 0
8:52 am 08:52 Mostly Sunny 82 27.8 74 23.3 77 77 S 6 9 30 1016 10 16.09344 0 0
9:52 am 09:52 Mostly Sunny 84 28.9 76 24.4 77 77 S 9 15 29.97 1015 10 16.09344 0 0
10:52 am 10:52 Mostly Cloudy 85 29.4 76 24.4 75 75 S 14 22 29.97 1015 10 16.09344 0 0
11:52 am 11:52 Mostly Cloudy 85 29.4 76 24.4 75 75 SSE 13 20 29.97 1015 10 16.09344 0 0
12:52 pm 12:52 Mostly Cloudy 88 31.1 76 24.4 68 68 VRB 5 7 29.94 1014 10 16.09344 0 0
1:52 pm 13:52 Partly Cloudy 92 33.3 73 22.8 54 54 WSW 10 17 29.91 1013 10 16.09344 0 0
2:46 pm 14:46 Mostly Cloudy with Light Rain 88 31 73 23 62 62 SW 15 24 29.91 1013 10 16.09344 0.001 0.001
2:52 pm 14:52 Mostly Cloudy with Light Rain 86 30 74 23.3 67 67 SW 14 22 29.88 1012 10 16.09344 0.001 0.001
2:55 pm 14:55 Mostly Cloudy with Light Rain 85 29.4 75 23.9 72 72 SW 14 22 29.91 1013 10 16.09344 0.001 0.001
3:20 pm 15:20 Mostly Cloudy 85 29.4 75 23.9 72 72 SW 6 9 29.88 1012 10 16.09344 0.03 0.762
3:52 pm 15:52 Sunny 85 29.4 74 23.3 70 70 SW 8 13 29.85 1011 10 16.09344 0.03 0.762
4:52 pm 16:52 Mostly Cloudy 87 30.6 76 24.4 70 70 S 9 15 29.85 1011 10 16.09344 0 0
5:52 pm 17:52 Mostly Cloudy 89 31.7 76 24.4 65 65 S 12 19 29.83 1010 10 16.09344 0 0
6:52 pm 18:52 Mostly Cloudy 88 31.1 74 23.3 63 63 SSW 9 15 29.85 1011 10 16.09344 0 0
7:14 pm 19:14 Mostly Cloudy with Thunderstorms 88 31.1 75 23.9 66 66 SW 9 15 29.88 1012 10 16.09344 0 0
7:31 pm 19:31 Mostly Cloudy with Heavy Thunderstorms 80 26.7 73 22.8 79 79 NW 26 43 29.91 1013 5 8.04672 0.01 0.254
7:35 pm 19:35 Mostly Cloudy with Heavy Thunderstorms 78 25.6 73 22.8 85 85 NW 28 44 29.91 1013 1.25 2.01168 0.03 0.762
7:40 pm 19:40 Mostly Cloudy with Heavy Thunderstorms 75 23.9 70 21.1 84 84 NNW 39 63 29.91 1013 0.75 1.207008 0.14 3.556
7:48 pm 19:48 Cloudy with Heavy Thunderstorms 79 26 70 21 74 74 N 12 19 29.91 1013 1 1.609344 0.44 11.176
7:52 pm 19:52 Cloudy with Heavy Thunderstorms 76 24.4 70 21.1 82 82 NNE 9 15 29.88 1012 1.25 2.01168 0.5 12.7
7:56 pm 19:56 Cloudy with Heavy Thunderstorms 75 23.9 70 21.1 84 84 NNE 7 11 29.91 1013 3 4.828032 0.04 1.016
8:13 pm 20:13 Mostly Cloudy with Thunderstorms 76 24.4 71 21.7 85 85 NNE 5 7 29.88 1012 8 12.874752 0.15 3.81
8:20 pm 20:20 Mostly Cloudy with Light Rain 76 24.4 72 22.2 88 88 NE 5 7 29.88 1012 10 16.09344 0.15 3.81
8:52 pm 20:52 Mostly Cloudy 76 24.4 71 21.7 85 85 SSW 3 6 29.88 1012 10 16.09344 0.15 3.81
9:52 pm 21:52 Cloudy with Thunderstorms 77 25 72 22.2 85 85 E 5 7 29.91 1013 10 16.09344 0.001 0.001
10:15 pm 22:15 Mostly Cloudy with Light Thunderstorms 77 25 72 22.2 85 85 ESE 3 6 29.91 1013 6 9.656064 0.04 1.016
10:21 pm 22:21 Mostly Cloudy with Light Thunderstorms 77 25 72 22.2 85 85 Calm 29.91 1013 10 16.09344 0.04 1.016
10:29 pm 22:29 Mostly Cloudy 77 25 72 22.2 85 85 Calm 29.91 1013 10 16.09344 0.04 1.016
10:37 pm 22:37 Mostly Cloudy 77 25 72 22.2 85 85 SE 3 6 29.91 1013 10 16.09344 0.04 1.016
10:52 pm 22:52 Mostly Cloudy 77 25 73 22.8 88 88 SSE 5 7 29.88 1012 10 16.09344 0.04 1.016
11:52 pm 23:52 Cloudy 77 25 72 22.2 85 85 SSE 6 9 29.91 1013 10 16.09344 0.001 0.001

Powered by AerisWeather